1598392809,2020-08-26 00:00,427.00,-28
1598392870,2020-08-26 00:01,430.00,-28
1598392930,2020-08-26 00:02,432.00,-31
1598392990,2020-08-26 00:03,432.00,-29
1598393050,2020-08-26 00:04,433.00,-28
1598393110,2020-08-26 00:05,435.00,-28
1598393170,2020-08-26 00:06,437.00,-28
1598393230,2020-08-26 00:07,434.00,-28
1598393290,2020-08-26 00:08,433.00,-27
1598393350,2020-08-26 00:09,432.00,-31
1598393410,2020-08-26 00:10,431.00,-27
1598393470,2020-08-26 00:11,432.00,-27
1598393530,2020-08-26 00:12,433.00,-27
1598393590,2020-08-26 00:13,434.00,-28
1598393650,2020-08-26 00:14,431.00,-27
1598393710,2020-08-26 00:15,435.00,-27
1598393770,2020-08-26 00:16,434.00,-28
1598393830,2020-08-26 00:17,429.00,-28
1598393890,2020-08-26 00:18,434.00,-28
1598393951,2020-08-26 00:19,432.00,-28
1598394011,2020-08-26 00:20,431.00,-28
1598394071,2020-08-26 00:21,434.00,-28
1598394131,2020-08-26 00:22,427.00,-29
1598394191,2020-08-26 00:23,431.00,-30
1598394251,2020-08-26 00:24,433.00,-32
1598394311,2020-08-26 00:25,430.00,-31
1598394371,2020-08-26 00:26,432.00,-29
1598394431,2020-08-26 00:27,432.00,-29
1598394491,2020-08-26 00:28,432.00,-28
1598394551,2020-08-26 00:29,434.00,-30
1598394611,2020-08-26 00:30,434.00,-29
1598394672,2020-08-26 00:31,432.00,-28
1598394732,2020-08-26 00:32,432.00,-30
1598394792,2020-08-26 00:33,434.00,-29
1598394852,2020-08-26 00:34,432.00,-31
1598394912,2020-08-26 00:35,432.00,-28
1598394972,2020-08-26 00:36,437.00,-32
1598395032,2020-08-26 00:37,434.00,-29
1598395092,2020-08-26 00:38,432.00,-28
1598395152,2020-08-26 00:39,435.00,-37
1598395212,2020-08-26 00:40,433.00,-30
1598395273,2020-08-26 00:41,434.00,-36
1598395333,2020-08-26 00:42,435.00,-30
1598395393,2020-08-26 00:43,438.00,-28
1598395453,2020-08-26 00:44,437.00,-27
1598395513,2020-08-26 00:45,437.00,-29
1598395573,2020-08-26 00:46,435.00,-28
1598395633,2020-08-26 00:47,439.00,-29
1598395693,2020-08-26 00:48,439.00,-27
1598395753,2020-08-26 00:49,437.00,-30
1598395813,2020-08-26 00:50,437.00,-32
1598395873,2020-08-26 00:51,439.00,-29
1598395933,2020-08-26 00:52,437.00,-28
1598395993,2020-08-26 00:53,437.00,-28
1598396053,2020-08-26 00:54,438.00,-29
1598396113,2020-08-26 00:55,437.00,-27
1598396173,2020-08-26 00:56,438.00,-27
1598396233,2020-08-26 00:57,437.00,-31
1598396294,2020-08-26 00:58,435.00,-28
1598396354,2020-08-26 00:59,438.00,-27
1598396414,2020-08-26 01:00,433.00,-28
1598396474,2020-08-26 01:01,436.00,-29
1598396534,2020-08-26 01:02,433.00,-29
1598396594,2020-08-26 01:03,435.00,-29
1598396654,2020-08-26 01:04,435.00,-28
1598396714,2020-08-26 01:05,435.00,-27
1598396774,2020-08-26 01:06,437.00,-27
1598396834,2020-08-26 01:07,437.00,-27
1598396894,2020-08-26 01:08,440.00,-27
1598396954,2020-08-26 01:09,435.00,-28
1598397014,2020-08-26 01:10,433.00,-28
1598397074,2020-08-26 01:11,438.00,-29
1598397134,2020-08-26 01:12,440.00,-29
1598397194,2020-08-26 01:13,440.00,-30
1598397255,2020-08-26 01:14,441.00,-30
1598397315,2020-08-26 01:15,442.00,-29
1598397375,2020-08-26 01:16,437.00,-27
1598397435,2020-08-26 01:17,439.00,-28
1598397495,2020-08-26 01:18,441.00,-29
1598397555,2020-08-26 01:19,442.00,-28
1598397615,2020-08-26 01:20,437.00,-29
1598397675,2020-08-26 01:21,439.00,-28
1598397735,2020-08-26 01:22,435.00,-28
1598397795,2020-08-26 01:23,433.00,-27
1598397855,2020-08-26 01:24,437.00,-29
1598397915,2020-08-26 01:25,437.00,-28
1598397975,2020-08-26 01:26,437.00,-27
1598398035,2020-08-26 01:27,436.00,-28
1598398095,2020-08-26 01:28,435.00,-28
1598398155,2020-08-26 01:29,432.00,-28
1598398215,2020-08-26 01:30,434.00,-27
1598398275,2020-08-26 01:31,435.00,-29
1598398336,2020-08-26 01:32,437.00,-27
1598398396,2020-08-26 01:33,434.00,-28
1598398456,2020-08-26 01:34,433.00,-29
1598398516,2020-08-26 01:35,433.00,-28
1598398576,2020-08-26 01:36,434.00,-28
1598398636,2020-08-26 01:37,435.00,-27
1598398696,2020-08-26 01:38,435.00,-29
1598398756,2020-08-26 01:39,432.00,-28
1598398816,2020-08-26 01:40,434.00,-29
1598398876,2020-08-26 01:41,436.00,-28
1598398936,2020-08-26 01:42,436.00,-28
1598398996,2020-08-26 01:43,435.00,-29
1598399056,2020-08-26 01:44,434.00,-30
1598399116,2020-08-26 01:45,437.00,-28
1598399176,2020-08-26 01:46,433.00,-27
1598399236,2020-08-26 01:47,439.00,-29
1598399297,2020-08-26 01:48,431.00,-29
1598399357,2020-08-26 01:49,433.00,-30
1598399417,2020-08-26 01:50,432.00,-31
1598399477,2020-08-26 01:51,431.00,-27
1598399537,2020-08-26 01:52,432.00,-28
1598399597,2020-08-26 01:53,435.00,-28
1598399657,2020-08-26 01:54,432.00,-28
1598399717,2020-08-26 01:55,433.00,-28
1598399777,2020-08-26 01:56,431.00,-28
1598399837,2020-08-26 01:57,431.00,-27
1598399897,2020-08-26 01:58,432.00,-28
1598399957,2020-08-26 01:59,435.00,-29
1598400017,2020-08-26 02:00,435.00,-28
1598400077,2020-08-26 02:01,433.00,-30
1598400137,2020-08-26 02:02,431.00,-31
1598400197,2020-08-26 02:03,428.00,-27
1598400257,2020-08-26 02:04,431.00,-27
1598400317,2020-08-26 02:05,432.00,-28
1598400377,2020-08-26 02:06,433.00,-28
1598400437,2020-08-26 02:07,434.00,-28
1598400497,2020-08-26 02:08,435.00,-31
1598400557,2020-08-26 02:09,432.00,-29
1598400617,2020-08-26 02:10,431.00,-30
1598400678,2020-08-26 02:11,434.00,-28
1598400738,2020-08-26 02:12,431.00,-28
1598400798,2020-08-26 02:13,430.00,-31
1598400858,2020-08-26 02:14,432.00,-28
1598400918,2020-08-26 02:15,432.00,-27
1598401041,2020-08-26 02:17,433.00,-28
1598401101,2020-08-26 02:18,435.00,-28
1598401161,2020-08-26 02:19,435.00,-28
1598401221,2020-08-26 02:20,436.00,-29
1598401281,2020-08-26 02:21,434.00,-27
1598401341,2020-08-26 02:22,435.00,-29
1598401401,2020-08-26 02:23,435.00,-28
1598401461,2020-08-26 02:24,434.00,-27
1598401521,2020-08-26 02:25,438.00,-27
1598401581,2020-08-26 02:26,437.00,-28
1598401642,2020-08-26 02:27,438.00,-27
1598401702,2020-08-26 02:28,438.00,-27
1598401762,2020-08-26 02:29,439.00,-29
1598401822,2020-08-26 02:30,438.00,-27
1598401882,2020-08-26 02:31,440.00,-27
1598401942,2020-08-26 02:32,439.00,-29
1598402002,2020-08-26 02:33,439.00,-27
1598402062,2020-08-26 02:34,439.00,-31
1598402122,2020-08-26 02:35,437.00,-29
1598402182,2020-08-26 02:36,436.00,-28
1598402243,2020-08-26 02:37,436.00,-29
1598402303,2020-08-26 02:38,438.00,-30
1598402363,2020-08-26 02:39,437.00,-27
1598402423,2020-08-26 02:40,438.00,-29
1598402483,2020-08-26 02:41,437.00,-27
1598402543,2020-08-26 02:42,438.00,-28
1598402603,2020-08-26 02:43,439.00,-29
1598402663,2020-08-26 02:44,439.00,-28
1598402723,2020-08-26 02:45,438.00,-27
1598402783,2020-08-26 02:46,437.00,-29
1598402843,2020-08-26 02:47,439.00,-27
1598402903,2020-08-26 02:48,438.00,-27
1598402963,2020-08-26 02:49,437.00,-29
1598403023,2020-08-26 02:50,437.00,-29
1598403083,2020-08-26 02:51,436.00,-28
1598403144,2020-08-26 02:52,438.00,-28
1598403204,2020-08-26 02:53,439.00,-28
1598403264,2020-08-26 02:54,438.00,-28
1598403324,2020-08-26 02:55,436.00,-27
1598403384,2020-08-26 02:56,438.00,-28
1598403444,2020-08-26 02:57,437.00,-28
1598403504,2020-08-26 02:58,435.00,-27
1598403564,2020-08-26 02:59,436.00,-28
1598403624,2020-08-26 03:00,438.00,-28
1598403684,2020-08-26 03:01,439.00,-28
1598403744,2020-08-26 03:02,440.00,-28
1598403804,2020-08-26 03:03,437.00,-27
1598403864,2020-08-26 03:04,436.00,-29
1598403924,2020-08-26 03:05,438.00,-28
1598403985,2020-08-26 03:06,438.00,-27
1598404045,2020-08-26 03:07,436.00,-28
1598404105,2020-08-26 03:08,436.00,-29
1598404165,2020-08-26 03:09,436.00,-29
1598404225,2020-08-26 03:10,436.00,-29
1598404285,2020-08-26 03:11,437.00,-28
1598404345,2020-08-26 03:12,436.00,-27
1598404405,2020-08-26 03:13,438.00,-27
1598404465,2020-08-26 03:14,436.00,-28
1598404525,2020-08-26 03:15,440.00,-29
1598404585,2020-08-26 03:16,436.00,-28
1598404645,2020-08-26 03:17,438.00,-27
1598404705,2020-08-26 03:18,439.00,-27
1598404765,2020-08-26 03:19,437.00,-28
1598404825,2020-08-26 03:20,438.00,-28
1598404885,2020-08-26 03:21,436.00,-28
1598404945,2020-08-26 03:22,432.00,-30
1598405005,2020-08-26 03:23,436.00,-29
1598405066,2020-08-26 03:24,436.00,-28
1598405126,2020-08-26 03:25,435.00,-31
1598405186,2020-08-26 03:26,439.00,-28
1598405246,2020-08-26 03:27,439.00,-27
1598405306,2020-08-26 03:28,436.00,-28
1598405366,2020-08-26 03:29,437.00,-27
1598405426,2020-08-26 03:30,438.00,-27
1598405486,2020-08-26 03:31,435.00,-28
1598405546,2020-08-26 03:32,437.00,-29
1598405606,2020-08-26 03:33,436.00,-28
1598405666,2020-08-26 03:34,436.00,-28
1598405726,2020-08-26 03:35,438.00,-28
1598405787,2020-08-26 03:36,437.00,-28
1598405847,2020-08-26 03:37,438.00,-29
1598405907,2020-08-26 03:38,435.00,-29
1598405967,2020-08-26 03:39,434.00,-28
1598406027,2020-08-26 03:40,437.00,-31
1598406087,2020-08-26 03:41,435.00,-29
1598406147,2020-08-26 03:42,434.00,-29
1598406207,2020-08-26 03:43,432.00,-29
1598406267,2020-08-26 03:44,437.00,-29
1598406327,2020-08-26 03:45,436.00,-28
1598406387,2020-08-26 03:46,439.00,-29
1598406447,2020-08-26 03:47,437.00,-28
1598406507,2020-08-26 03:48,436.00,-27
1598406567,2020-08-26 03:49,438.00,-28
1598406627,2020-08-26 03:50,435.00,-30
1598406687,2020-08-26 03:51,433.00,-28
1598406747,2020-08-26 03:52,437.00,-28
1598406807,2020-08-26 03:53,434.00,-29
1598406868,2020-08-26 03:54,437.00,-29
1598406928,2020-08-26 03:55,436.00,-28
1598406988,2020-08-26 03:56,433.00,-29
1598407048,2020-08-26 03:57,435.00,-30
1598407108,2020-08-26 03:58,436.00,-28
1598407168,2020-08-26 03:59,437.00,-30
1598407228,2020-08-26 04:00,435.00,-28
1598407288,2020-08-26 04:01,436.00,-29
1598407348,2020-08-26 04:02,437.00,-28
1598407408,2020-08-26 04:03,437.00,-27
1598407468,2020-08-26 04:04,440.00,-29
1598407528,2020-08-26 04:05,438.00,-28
1598407588,2020-08-26 04:06,436.00,-28
1598407648,2020-08-26 04:07,435.00,-27
1598407708,2020-08-26 04:08,438.00,-28
1598407768,2020-08-26 04:09,438.00,-28
1598407828,2020-08-26 04:10,435.00,-27
1598407888,2020-08-26 04:11,437.00,-29
1598407948,2020-08-26 04:12,433.00,-28
1598408008,2020-08-26 04:13,436.00,-28
1598408069,2020-08-26 04:14,436.00,-28
1598408129,2020-08-26 04:15,439.00,-32
1598408189,2020-08-26 04:16,437.00,-30
1598408249,2020-08-26 04:17,437.00,-27
1598408309,2020-08-26 04:18,437.00,-28
1598408369,2020-08-26 04:19,437.00,-28
1598408429,2020-08-26 04:20,438.00,-28
1598408489,2020-08-26 04:21,439.00,-27
1598408549,2020-08-26 04:22,437.00,-29
1598408609,2020-08-26 04:23,438.00,-29
1598408669,2020-08-26 04:24,436.00,-27
1598408729,2020-08-26 04:25,437.00,-29
1598408789,2020-08-26 04:26,437.00,-29
1598408849,2020-08-26 04:27,438.00,-28
1598408909,2020-08-26 04:28,436.00,-31
1598408969,2020-08-26 04:29,437.00,-27
1598409030,2020-08-26 04:30,436.00,-29
1598409090,2020-08-26 04:31,436.00,-29
1598409150,2020-08-26 04:32,438.00,-28
1598409210,2020-08-26 04:33,438.00,-28
1598409270,2020-08-26 04:34,436.00,-28
1598409330,2020-08-26 04:35,438.00,-29
1598409390,2020-08-26 04:36,436.00,-28
1598409450,2020-08-26 04:37,437.00,-27
1598409510,2020-08-26 04:38,436.00,-27
1598409570,2020-08-26 04:39,438.00,-27
1598409630,2020-08-26 04:40,439.00,-29
1598409690,2020-08-26 04:41,440.00,-28
1598409750,2020-08-26 04:42,437.00,-27
1598409810,2020-08-26 04:43,436.00,-27
1598409870,2020-08-26 04:44,436.00,-28
1598409931,2020-08-26 04:45,438.00,-29
1598409991,2020-08-26 04:46,436.00,-27
1598410051,2020-08-26 04:47,437.00,-28
1598410111,2020-08-26 04:48,438.00,-28
1598410171,2020-08-26 04:49,434.00,-29
1598410231,2020-08-26 04:50,435.00,-28
1598410291,2020-08-26 04:51,436.00,-28
1598410351,2020-08-26 04:52,438.00,-30
1598410411,2020-08-26 04:53,437.00,-28
1598410471,2020-08-26 04:54,436.00,-27
1598410531,2020-08-26 04:55,434.00,-28
1598410591,2020-08-26 04:56,435.00,-27
1598410651,2020-08-26 04:57,438.00,-28
1598410711,2020-08-26 04:58,435.00,-28
1598410771,2020-08-26 04:59,434.00,-29
1598410832,2020-08-26 05:00,432.00,-29
1598410892,2020-08-26 05:01,434.00,-28
1598410952,2020-08-26 05:02,432.00,-27
1598411012,2020-08-26 05:03,435.00,-28
1598411072,2020-08-26 05:04,436.00,-27
1598411132,2020-08-26 05:05,438.00,-29
1598411192,2020-08-26 05:06,436.00,-29
1598411252,2020-08-26 05:07,435.00,-28
1598411312,2020-08-26 05:08,435.00,-27
1598411372,2020-08-26 05:09,436.00,-30
1598411432,2020-08-26 05:10,437.00,-27
1598411492,2020-08-26 05:11,432.00,-28
1598411552,2020-08-26 05:12,432.00,-30
1598411613,2020-08-26 05:13,435.00,-27
1598411673,2020-08-26 05:14,437.00,-29
1598411733,2020-08-26 05:15,433.00,-30
1598411793,2020-08-26 05:16,434.00,-29
1598411853,2020-08-26 05:17,436.00,-28
1598411913,2020-08-26 05:18,436.00,-28
1598411973,2020-08-26 05:19,435.00,-30
1598412033,2020-08-26 05:20,434.00,-28
1598412093,2020-08-26 05:21,434.00,-29
1598412153,2020-08-26 05:22,433.00,-28
1598412213,2020-08-26 05:23,435.00,-28
1598412273,2020-08-26 05:24,437.00,-31
1598412333,2020-08-26 05:25,434.00,-28
1598412393,2020-08-26 05:26,434.00,-29
1598412454,2020-08-26 05:27,434.00,-28
1598412514,2020-08-26 05:28,435.00,-29
1598412574,2020-08-26 05:29,433.00,-30
1598412634,2020-08-26 05:30,435.00,-29
1598412694,2020-08-26 05:31,435.00,-28
1598412754,2020-08-26 05:32,434.00,-31
1598412814,2020-08-26 05:33,437.00,-28
1598412874,2020-08-26 05:34,437.00,-29
1598412934,2020-08-26 05:35,434.00,-32
1598412994,2020-08-26 05:36,434.00,-28
1598413054,2020-08-26 05:37,436.00,-29
1598413114,2020-08-26 05:38,435.00,-29
1598413177,2020-08-26 05:39,433.00,-30
1598413237,2020-08-26 05:40,433.00,-30
1598413297,2020-08-26 05:41,436.00,-29
1598413357,2020-08-26 05:42,435.00,-28
1598413417,2020-08-26 05:43,436.00,-29
1598413477,2020-08-26 05:44,438.00,-31
1598413537,2020-08-26 05:45,435.00,-28
1598413597,2020-08-26 05:46,436.00,-28
1598413657,2020-08-26 05:47,433.00,-28
1598413717,2020-08-26 05:48,434.00,-28
1598413777,2020-08-26 05:49,435.00,-28
1598413838,2020-08-26 05:50,433.00,-28
1598413898,2020-08-26 05:51,431.00,-28
1598413958,2020-08-26 05:52,436.00,-28
1598414018,2020-08-26 05:53,435.00,-29
1598414078,2020-08-26 05:54,433.00,-28
1598414138,2020-08-26 05:55,434.00,-29
1598414198,2020-08-26 05:56,433.00,-32
1598414258,2020-08-26 05:57,438.00,-28
1598414318,2020-08-26 05:58,438.00,-28
1598414378,2020-08-26 05:59,435.00,-33
1598414438,2020-08-26 06:00,433.00,-34
1598414498,2020-08-26 06:01,436.00,-37
1598414558,2020-08-26 06:02,437.00,-34
1598414618,2020-08-26 06:03,433.00,-29
1598414678,2020-08-26 06:04,434.00,-31
1598414738,2020-08-26 06:05,434.00,-30
1598414798,2020-08-26 06:06,436.00,-28
1598414858,2020-08-26 06:07,432.00,-28
1598414918,2020-08-26 06:08,433.00,-28
1598414978,2020-08-26 06:09,434.00,-30
1598415038,2020-08-26 06:10,438.00,-29
1598415098,2020-08-26 06:11,436.00,-28
1598415159,2020-08-26 06:12,437.00,-31
1598415219,2020-08-26 06:13,434.00,-28
1598415279,2020-08-26 06:14,436.00,-28
1598415339,2020-08-26 06:15,435.00,-29
1598415399,2020-08-26 06:16,436.00,-29
1598415459,2020-08-26 06:17,435.00,-28
1598415519,2020-08-26 06:18,436.00,-29
1598415579,2020-08-26 06:19,434.00,-29
1598415639,2020-08-26 06:20,434.00,-29
1598415699,2020-08-26 06:21,436.00,-31
1598415759,2020-08-26 06:22,436.00,-28
1598415819,2020-08-26 06:23,435.00,-29
1598415879,2020-08-26 06:24,437.00,-29
1598415939,2020-08-26 06:25,436.00,-28
1598415999,2020-08-26 06:26,435.00,-28
1598416060,2020-08-26 06:27,433.00,-28
1598416120,2020-08-26 06:28,435.00,-31
1598416180,2020-08-26 06:29,434.00,-28
1598416240,2020-08-26 06:30,437.00,-29
1598416300,2020-08-26 06:31,435.00,-29
1598416360,2020-08-26 06:32,434.00,-28
1598416420,2020-08-26 06:33,435.00,-29
1598416480,2020-08-26 06:34,436.00,-29
1598416540,2020-08-26 06:35,436.00,-28
1598416600,2020-08-26 06:36,438.00,-27
1598416660,2020-08-26 06:37,436.00,-29
1598416720,2020-08-26 06:38,438.00,-28
1598416780,2020-08-26 06:39,436.00,-29
1598416840,2020-08-26 06:40,437.00,-29
1598416900,2020-08-26 06:41,437.00,-28
1598416960,2020-08-26 06:42,437.00,-28
1598417021,2020-08-26 06:43,437.00,-28
1598417081,2020-08-26 06:44,437.00,-28
1598417141,2020-08-26 06:45,436.00,-28
1598417201,2020-08-26 06:46,437.00,-28
1598417261,2020-08-26 06:47,437.00,-30
1598417321,2020-08-26 06:48,438.00,-28
1598417381,2020-08-26 06:49,437.00,-28
1598417441,2020-08-26 06:50,436.00,-28
1598417501,2020-08-26 06:51,436.00,-29
1598417561,2020-08-26 06:52,434.00,-28
1598417621,2020-08-26 06:53,434.00,-29
1598417682,2020-08-26 06:54,434.00,-29
1598417742,2020-08-26 06:55,434.00,-29
1598417802,2020-08-26 06:56,435.00,-29
1598417862,2020-08-26 06:57,433.00,-29
1598417922,2020-08-26 06:58,432.00,-31
1598417982,2020-08-26 06:59,436.00,-28
1598418042,2020-08-26 07:00,430.00,-29
1598418102,2020-08-26 07:01,432.00,-28
1598418162,2020-08-26 07:02,432.00,-30
1598418222,2020-08-26 07:03,429.00,-30
1598418283,2020-08-26 07:04,432.00,-29
1598418343,2020-08-26 07:05,432.00,-28
1598418403,2020-08-26 07:06,432.00,-29
1598418463,2020-08-26 07:07,432.00,-29
1598418523,2020-08-26 07:08,431.00,-29
1598418583,2020-08-26 07:09,433.00,-29
1598418643,2020-08-26 07:10,431.00,-29
1598418703,2020-08-26 07:11,431.00,-29
1598418763,2020-08-26 07:12,431.00,-29
1598418824,2020-08-26 07:13,430.00,-28
1598418884,2020-08-26 07:14,430.00,-30
1598418944,2020-08-26 07:15,431.00,-28
1598419004,2020-08-26 07:16,431.00,-29
1598419064,2020-08-26 07:17,430.00,-28
1598419124,2020-08-26 07:18,428.00,-30
1598419184,2020-08-26 07:19,427.00,-29
1598419244,2020-08-26 07:20,431.00,-28
1598419304,2020-08-26 07:21,430.00,-28
1598419364,2020-08-26 07:22,428.00,-28
1598419424,2020-08-26 07:23,426.00,-30
1598419484,2020-08-26 07:24,428.00,-28
1598419545,2020-08-26 07:25,427.00,-29
1598419605,2020-08-26 07:26,427.00,-31
1598419665,2020-08-26 07:27,427.00,-31
1598419725,2020-08-26 07:28,423.00,-31
1598419785,2020-08-26 07:29,423.00,-30
1598419845,2020-08-26 07:30,427.00,-31
1598419905,2020-08-26 07:31,428.00,-29
1598419965,2020-08-26 07:32,425.00,-28
1598420025,2020-08-26 07:33,427.00,-29
1598420085,2020-08-26 07:34,427.00,-29
1598420145,2020-08-26 07:35,424.00,-32
1598420206,2020-08-26 07:36,423.00,-31
1598420266,2020-08-26 07:37,425.00,-31
1598420326,2020-08-26 07:38,425.00,-28
1598420386,2020-08-26 07:39,421.00,-30
1598420446,2020-08-26 07:40,423.00,-28
1598420506,2020-08-26 07:41,421.00,-27
1598420566,2020-08-26 07:42,420.00,-29
1598420627,2020-08-26 07:43,421.00,-29
1598420687,2020-08-26 07:44,421.00,-31
1598420747,2020-08-26 07:45,422.00,-32
1598420807,2020-08-26 07:46,421.00,-31
1598420867,2020-08-26 07:47,420.00,-28
1598420927,2020-08-26 07:48,419.00,-29
1598420987,2020-08-26 07:49,419.00,-29
1598421047,2020-08-26 07:50,417.00,-28
1598421107,2020-08-26 07:51,421.00,-27
1598421167,2020-08-26 07:52,421.00,-28
1598421227,2020-08-26 07:53,421.00,-31
1598421288,2020-08-26 07:54,419.00,-31
1598421348,2020-08-26 07:55,419.00,-27
1598421408,2020-08-26 07:56,418.00,-28
1598421468,2020-08-26 07:57,418.00,-31
1598421528,2020-08-26 07:58,421.00,-28
1598421588,2020-08-26 07:59,418.00,-28
1598421648,2020-08-26 08:00,416.00,-28
1598421708,2020-08-26 08:01,418.00,-30
1598421768,2020-08-26 08:02,421.00,-30
1598421828,2020-08-26 08:03,418.00,-30
1598421889,2020-08-26 08:04,418.00,-30
1598421949,2020-08-26 08:05,422.00,-31
1598422009,2020-08-26 08:06,418.00,-29
1598422069,2020-08-26 08:07,415.00,-30
1598422129,2020-08-26 08:08,416.00,-32
1598422189,2020-08-26 08:09,417.00,-32
1598422249,2020-08-26 08:10,417.00,-30
1598422309,2020-08-26 08:11,418.00,-31
1598422369,2020-08-26 08:12,415.00,-32
1598422429,2020-08-26 08:13,415.00,-30
1598422489,2020-08-26 08:14,415.00,-30
1598422549,2020-08-26 08:15,417.00,-30
1598422609,2020-08-26 08:16,415.00,-31
1598422669,2020-08-26 08:17,413.00,-31
1598422729,2020-08-26 08:18,414.00,-29
1598422789,2020-08-26 08:19,413.00,-34
1598422850,2020-08-26 08:20,413.00,-30
1598422910,2020-08-26 08:21,415.00,-30
1598422970,2020-08-26 08:22,413.00,-31
1598423030,2020-08-26 08:23,413.00,-30
1598423090,2020-08-26 08:24,416.00,-31
1598423150,2020-08-26 08:25,413.00,-31
1598423210,2020-08-26 08:26,412.00,-34
1598423270,2020-08-26 08:27,412.00,-30
1598423330,2020-08-26 08:28,413.00,-31
1598423390,2020-08-26 08:29,412.00,-30
1598423450,2020-08-26 08:30,413.00,-30
1598423510,2020-08-26 08:31,412.00,-30
1598423570,2020-08-26 08:32,412.00,-30
1598423631,2020-08-26 08:33,412.00,-31
1598423691,2020-08-26 08:34,410.00,-30
1598423751,2020-08-26 08:35,408.00,-30
1598423811,2020-08-26 08:36,411.00,-30
1598423871,2020-08-26 08:37,411.00,-29
1598423931,2020-08-26 08:38,410.00,-31
1598423991,2020-08-26 08:39,409.00,-31
1598424051,2020-08-26 08:40,408.00,-32
1598424112,2020-08-26 08:41,409.00,-30
1598424172,2020-08-26 08:42,410.00,-30
1598424232,2020-08-26 08:43,409.00,-30
1598424292,2020-08-26 08:44,408.00,-31
1598424352,2020-08-26 08:45,410.00,-32
1598424412,2020-08-26 08:46,407.00,-29
1598424472,2020-08-26 08:47,408.00,-31
1598424532,2020-08-26 08:48,409.00,-30
1598424592,2020-08-26 08:49,410.00,-31
1598424652,2020-08-26 08:50,407.00,-32
1598424712,2020-08-26 08:51,406.00,-31
1598424772,2020-08-26 08:52,407.00,-31
1598424833,2020-08-26 08:53,406.00,-29
1598424893,2020-08-26 08:54,404.00,-30
1598424953,2020-08-26 08:55,405.00,-30
1598425013,2020-08-26 08:56,406.00,-31
1598425073,2020-08-26 08:57,407.00,-30
1598425133,2020-08-26 08:58,404.00,-27
1598425193,2020-08-26 08:59,411.00,-28
1598425253,2020-08-26 09:00,412.00,-30
1598425313,2020-08-26 09:01,410.00,-29
1598425373,2020-08-26 09:02,408.00,-31
1598425433,2020-08-26 09:03,408.00,-30
1598425493,2020-08-26 09:04,410.00,-31
1598425554,2020-08-26 09:05,410.00,-33
1598425614,2020-08-26 09:06,409.00,-31
1598425674,2020-08-26 09:07,409.00,-29
1598425734,2020-08-26 09:08,409.00,-29
1598425794,2020-08-26 09:09,408.00,-30
1598425854,2020-08-26 09:10,408.00,-29
1598425914,2020-08-26 09:11,409.00,-29
1598425974,2020-08-26 09:12,407.00,-31
1598426034,2020-08-26 09:13,409.00,-31
1598426094,2020-08-26 09:14,409.00,-29
1598426154,2020-08-26 09:15,407.00,-33
1598426214,2020-08-26 09:16,405.00,-31
1598426274,2020-08-26 09:17,406.00,-30
1598426335,2020-08-26 09:18,406.00,-30
1598426395,2020-08-26 09:19,406.00,-31
1598426455,2020-08-26 09:20,407.00,-33
1598426515,2020-08-26 09:21,405.00,-28
1598426575,2020-08-26 09:22,404.00,-34
1598426635,2020-08-26 09:23,405.00,-30
1598426695,2020-08-26 09:24,406.00,-33
1598426755,2020-08-26 09:25,404.00,-30
1598426815,2020-08-26 09:26,403.00,-31
1598426875,2020-08-26 09:27,406.00,-33
1598426935,2020-08-26 09:28,406.00,-29
1598426995,2020-08-26 09:29,403.00,-30
1598427055,2020-08-26 09:30,405.00,-31
1598427115,2020-08-26 09:31,405.00,-31
1598427175,2020-08-26 09:32,403.00,-29
1598427235,2020-08-26 09:33,403.00,-30
1598427296,2020-08-26 09:34,403.00,-29
1598427356,2020-08-26 09:35,401.00,-33
1598427416,2020-08-26 09:36,402.00,-31
1598427476,2020-08-26 09:37,402.00,-29
1598427536,2020-08-26 09:38,403.00,-29
1598427596,2020-08-26 09:39,401.00,-32
1598427656,2020-08-26 09:40,401.00,-33
1598427716,2020-08-26 09:41,399.00,-32
1598427776,2020-08-26 09:42,400.00,-30
1598427836,2020-08-26 09:43,399.00,-29
1598427896,2020-08-26 09:44,403.00,-34
1598427956,2020-08-26 09:45,405.00,-31
1598428016,2020-08-26 09:46,404.00,-38
1598428077,2020-08-26 09:47,403.00,-30
1598428137,2020-08-26 09:48,405.00,-29
1598428197,2020-08-26 09:49,402.00,-29
1598428257,2020-08-26 09:50,407.00,-30
1598428318,2020-08-26 09:51,403.00,-30
1598428378,2020-08-26 09:52,401.00,-28
1598428438,2020-08-26 09:53,405.00,-30
1598428498,2020-08-26 09:54,404.00,-37
1598428558,2020-08-26 09:55,403.00,-29
1598428618,2020-08-26 09:56,403.00,-32
1598428678,2020-08-26 09:57,406.00,-29
1598428738,2020-08-26 09:58,403.00,-33
1598428798,2020-08-26 09:59,406.00,-29
1598428858,2020-08-26 10:00,405.00,-29
1598428918,2020-08-26 10:01,403.00,-34
1598428978,2020-08-26 10:02,401.00,-33
1598429039,2020-08-26 10:03,404.00,-28
1598429099,2020-08-26 10:04,403.00,-30
1598429159,2020-08-26 10:05,402.00,-32
1598429219,2020-08-26 10:06,404.00,-34
1598429279,2020-08-26 10:07,401.00,-33
1598429339,2020-08-26 10:08,401.00,-30
1598429399,2020-08-26 10:09,402.00,-28
1598429459,2020-08-26 10:10,404.00,-29
1598429519,2020-08-26 10:11,401.00,-33
1598429579,2020-08-26 10:12,402.00,-31
1598429702,2020-08-26 10:15,403.00,-29
1598429762,2020-08-26 10:16,403.00,-27
1598429822,2020-08-26 10:17,402.00,-28